Location: Le Hiès Ruisseau
(43.3000°N, 0.4500°W)
Time: 02:24:25
(UTC+00:00)

CZ-4 R/B - Pass Details

Date: 28 January 2023
Orbit: 526 x 587 km, 97.7° (Epoch: 27 March)

Event Time Altitude Azimuth Distance (km) Brightness Sun altitude
Rises 19:49:32 0° 191° (S) 2,807 5.0 -29.4°
Reaches altitude 10° 19:51:54 10° 202° (SSW) 1,910 4.3 -29.8°
Maximum altitude 19:55:33 29° 264° (W) 1,077 3.3 -30.5°
Drops below altitude 10° 19:59:12 10° 326° (NW) 1,908 4.5 -31.2°
Sets 20:01:34 0° 337° (NNW) 2,804 5.3 -31.6°
